Date String (YYYY-MM-DD hh:mm:ss) UTC,Instrument flags,absolute air pressure of the measurement (hPa),sample flow rate (lpm),inlet stack bypass flow (lpm),air temperature of the measurement (°C),ambient temperature measured by the external sensor (°C),aerosol sample conditioner tube jacket temperature (°C),OPC LED temperature (°C),internal box temperature (°C),relative humidity of the measurement (%),span deviation,mass concentration of particles derived from Lorenz-Mie calculation of OPC scattering (μg/m³),mass concentration of particles derived from Lorenz-Mie calculation of OPC scattering (μg/m³),mass concentration of particles derived from Lorenz-Mie calculation of OPC scattering (μg/m³)
DateTimeUTC,F1_M11,P_M11,Q1_M11,Q2_M11,T1_M11,T2_M11,T3_M11,T4_M11,T5_M11,U1_M11,ZSPAN_M11,X0_M11,X2_M11,X1_M11
2023-10-30 19:00:00,SystemResetWarning,0834.2,4.99,000.00,024.0,023.4,000.0,032.2,025.5,9.7,0000.0,0034.15,0005.06,0004.58
2023-10-30 19:01:00,SystemResetWarning,0834.2,4.99,000.00,024.0,023.4,000.0,032.2,025.6,10.0,0000.0,0029.90,0005.07,0004.63
2023-10-30 19:02:00,SystemResetWarning,0834.2,5.00,000.00,024.1,023.4,000.0,032.2,025.6,10.2,0000.0,0026.49,0005.09,0004.68
2023-10-30 19:03:00,SystemResetWarning,0834.1,5.00,000.00,024.1,023.4,000.0,032.3,025.6,9.9,0000.0,0024.12,0005.12,0004.72
2023-10-30 19:04:00,SystemResetWarning,0834.1,5.01,000.00,024.1,023.5,000.0,032.3,025.6,9.9,0000.0,0022.23,0005.14,0004.75
2023-10-30 19:05:00,SystemResetWarning,0834.1,5.00,000.00,024.1,023.5,000.0,032.3,025.7,10.5,0000.0,0020.79,0005.14,0004.77
2023-10-30 19:06:00,SystemResetWarning,0834.1,5.00,000.00,024.2,023.5,000.0,032.3,025.7,10.3,0001.7,0019.61,0005.13,0004.78
2023-10-30 19:07:00,SystemResetWarning,0834.1,5.00,000.00,024.2,023.5,000.0,032.3,025.7,10.0,0001.9,0016.53,0005.25,0004.91
2023-10-30 19:08:00,SystemResetWarning,0834.1,4.99,000.00,024.2,023.5,000.0,032.4,025.6,10.1,0002.3,0009.07,0005.24,0004.96
2023-10-30 19:09:00,SystemResetWarning,0834.1,5.00,000.00,024.1,023.4,000.0,032.4,025.4,10.4,0000.4,0008.89,0005.20,0004.95
2023-10-30 19:10:00,SystemResetWarning,0834.1,5.01,000.00,024.1,023.4,000.0,032.4,025.5,10.3,0003.4,0008.42,0005.14,0004.93
2023-10-30 19:11:00,SystemResetWarning,0834.1,5.01,000.00,024.1,023.4,000.0,032.4,025.5,10.2,0003.7,0009.57,0005.24,0004.90
2023-10-30 19:12:00,SystemResetWarning,0834.1,5.00,000.00,024.1,023.4,000.0,032.4,025.6,10.3,0002.3,0009.57,0005.23,0004.89
2023-10-30 19:13:00,SystemResetWarning,0834.1,5.01,000.00,024.1,023.4,000.0,032.4,025.6,10.3,0000.0,0009.53,0005.19,0004.86
2023-10-30 19:14:00,SystemResetWarning,0834.0,4.99,000.00,024.2,023.5,000.0,032.4,025.7,10.2,0000.0,0009.43,0005.14,0004.81
2023-10-30 19:15:00,SystemResetWarning,0834.0,5.00,000.00,024.2,023.5,000.0,032.4,025.7,10.2,0000.0,0009.38,0005.09,0004.76
2023-10-30 19:16:00,SystemResetWarning,0834.1,4.99,000.00,024.2,023.5,000.0,032.4,025.7,9.9,0000.0,0009.30,0005.03,0004.71
2023-10-30 19:17:00,SystemResetWarning,0834.0,5.00,000.00,024.2,023.6,000.0,032.5,025.9,9.9,0000.0,0009.25,0004.98,0004.65
2023-10-30 19:18:00,SystemResetWarning,0834.1,5.00,000.00,024.3,023.6,000.0,032.5,025.9,10.1,0000.0,0008.82,0004.91,0004.60
2023-10-30 19:19:00,SystemResetWarning,0834.1,5.01,000.00,024.3,023.6,000.0,032.5,025.9,10.0,0000.0,0008.44,0004.86,0004.56
2023-10-30 19:20:00,SystemResetWarning,0834.1,5.01,000.00,024.3,023.7,000.0,032.5,025.9,10.0,0001.6,0008.41,0004.86,0004.55
2023-10-30 19:21:00,SystemResetWarning,0834.1,5.01,000.00,024.3,023.7,000.0,032.5,026.0,10.1,0000.5,0008.43,0004.87,0004.53
2023-10-30 19:22:00,SystemResetWarning,0834.1,5.00,000.00,024.4,023.7,000.0,032.5,026.0,9.8,0000.0,0008.04,0004.82,0004.53
2023-10-30 19:23:00,SystemResetWarning,0834.1,5.00,000.00,024.4,023.7,000.0,032.6,026.0,9.5,0001.6,0008.04,0004.81,0004.53
2023-10-30 19:24:00,SystemResetWarning,0834.1,5.00,000.00,024.4,023.8,000.0,032.6,026.0,9.1,0000.7,0008.00,0004.80,0004.54
2023-10-30 19:25:00,SystemResetWarning,0834.1,5.00,000.00,024.4,023.8,000.0,032.6,026.0,9.3,0000.4,0008.10,0004.85,0004.57
2023-10-30 19:26:00,SystemResetWarning,0834.1,5.00,000.00,024.5,023.8,000.0,032.6,026.1,9.3,0000.5,0008.13,0004.89,0004.61
2023-10-30 19:27:00,SystemResetWarning,0834.1,5.00,000.00,024.5,023.8,000.0,032.6,026.1,9.5,0000.6,0008.32,0004.93,0004.65
2023-10-30 19:28:00,SystemResetWarning,0834.1,5.00,000.00,024.5,023.9,000.0,032.7,026.1,9.8,0000.3,0008.38,0004.97,0004.71
2023-10-30 19:29:00,SystemResetWarning,0834.1,5.00,000.00,024.5,023.9,000.0,032.7,026.1,10.0,0000.2,0008.45,0005.05,0004.77
2023-10-30 19:30:00,SystemResetWarning,0834.1,5.00,000.00,024.5,023.9,000.0,032.7,026.1,10.1,0000.5,0008.76,0005.12,0004.82
2023-10-30 19:31:00,SystemResetWarning,0834.1,5.01,000.00,024.6,023.9,000.0,032.7,026.2,10.3,0001.1,0008.96,0005.12,0004.83
2023-10-30 19:32:00,SystemResetWarning,0834.1,5.00,000.00,024.6,023.9,000.0,032.7,026.2,10.4,0001.4,0009.49,0005.13,0004.84
2023-10-30 19:33:00,SystemResetWarning,0834.1,5.00,000.00,024.6,023.9,000.0,032.8,026.2,10.6,0001.5,0009.26,0005.12,0004.85
2023-10-30 19:34:00,SystemResetWarning,0834.1,5.00,000.00,024.6,024.0,000.0,032.8,026.2,10.8,0000.2,0008.62,0005.09,0004.85
2023-10-30 19:35:00,SystemResetWarning,0834.1,5.00,000.00,024.6,024.0,000.0,032.8,026.3,10.3,0000.4,0008.75,0005.14,0004.86
2023-10-30 19:36:00,SystemResetWarning,0834.1,5.00,000.00,024.7,024.0,000.0,032.8,026.3,9.0,0000.5,0008.75,0005.15,0004.86
2023-10-30 19:37:00,SystemResetWarning,0834.1,4.98,000.00,024.7,024.0,000.0,032.8,026.3,8.7,0001.3,0008.73,0005.14,0004.85
2023-10-30 19:38:00,SystemResetWarning,0834.1,5.00,000.00,024.7,024.1,000.0,032.9,026.3,8.7,0000.7,0008.74,0005.16,0004.85
2023-10-30 19:39:00,SystemResetWarning,0834.1,5.02,000.00,024.7,024.1,000.0,032.9,026.3,9.0,0001.8,0008.79,0005.20,0004.86
2023-10-30 19:40:00,SystemResetWarning,0834.1,5.00,000.00,024.7,024.0,000.0,032.9,026.0,9.4,0002.0,0008.83,0005.21,0004.86
2023-10-30 19:41:00,SystemResetWarning,0834.2,4.98,000.00,024.6,023.9,000.0,032.9,026.0,9.4,0001.1,0009.00,0005.20,0004.85
2023-10-30 19:42:00,SystemResetWarning,0834.2,5.01,000.00,024.6,023.9,000.0,032.9,026.0,8.9,-000.1,0009.28,0005.21,0004.86
2023-10-30 19:43:00,SystemResetWarning,0834.2,5.01,000.00,024.6,023.9,000.0,032.9,026.1,8.4,-000.8,0008.85,0005.25,0004.89
2023-10-30 19:44:00,SystemResetWarning,0834.2,4.99,000.00,024.7,023.9,000.0,032.9,026.2,9.1,-000.3,0008.89,0005.28,0004.91
2023-10-30 19:45:00,SystemResetWarning,0834.1,4.99,000.00,024.7,023.9,000.0,032.9,026.3,9.0,-000.2,0008.95,0005.30,0004.92
2023-10-30 19:46:00,SystemResetWarning,0834.1,4.99,000.00,024.7,024.0,000.0,032.9,026.3,8.9,-000.3,0008.98,0005.30,0004.94
2023-10-30 19:47:00,SystemResetWarning,0834.1,5.01,000.00,024.7,024.0,000.0,033.0,026.3,9.1,0000.0,0009.80,0005.31,0004.95
2023-10-30 19:48:00,SystemResetWarning,0834.0,5.01,000.00,024.8,024.0,000.0,033.0,026.3,9.3,0000.0,0009.77,0005.31,0004.97
2023-10-30 19:49:00,SystemResetWarning,0834.0,5.01,000.00,024.8,024.1,000.0,033.0,026.4,9.2,-000.4,0009.76,0005.34,0004.99
2023-10-30 19:50:00,SystemResetWarning,0833.9,4.99,000.00,024.8,024.1,000.0,033.0,026.4,9.0,0000.0,0009.70,0005.34,0005.00
2023-10-30 19:51:00,SystemResetWarning,0833.9,4.99,000.00,024.8,024.1,000.0,033.0,026.5,9.2,0000.0,0009.68,0005.33,0005.00
2023-10-30 19:52:00,SystemResetWarning,0834.0,5.00,000.00,024.9,024.2,000.0,033.0,026.5,9.4,0000.0,0009.49,0005.37,0005.02
2023-10-30 19:53:00,SystemResetWarning,0834.0,5.02,000.00,024.9,024.2,000.0,033.1,026.5,9.3,0000.0,0009.60,0005.40,0005.04
2023-10-30 19:54:00,SystemResetWarning,0834.0,5.00,000.00,024.9,024.2,000.0,033.1,026.5,9.3,0000.0,0009.71,0005.41,0005.05
2023-10-30 19:55:00,SystemResetWarning,0834.1,5.00,000.00,024.9,024.2,000.0,033.1,026.5,9.2,0000.0,0009.76,0005.42,0005.04
2023-10-30 19:56:00,SystemResetWarning,0834.0,4.99,000.00,025.0,024.3,000.0,033.1,026.6,9.7,0000.0,0009.75,0005.43,0005.05
2023-10-30 19:57:00,SystemResetWarning,0834.0,5.01,000.00,025.0,024.3,000.0,033.1,026.6,9.5,0000.0,0009.71,0005.42,0005.05
2023-10-30 19:58:00,SystemResetWarning,0834.0,5.00,000.00,025.0,024.3,000.0,033.2,026.6,9.4,0000.7,0008.94,0005.40,0005.04
2023-10-30 19:59:00,SystemResetWarning,0834.0,5.00,000.00,025.0,024.3,000.0,033.2,026.6,9.4,0000.4,0008.86,0005.39,0005.03
